When you browse on this site, cookies collect data to enhance your experience and personalize the content and advertising you see.
Visit our Privacy Policy to learn more. By continuing to use the site, you agree to this use of cookies and data.
  • en France
  • Liste des pays
  • À 7 jours
  • Température de l'eau
  • Carte satellitaire
  • Carte météo
  • Widgets météo
  • user-avatar
    Se connecter

    Météo par heure à Rsaevo

    Ce jour, 20 Novembre, Mardi

    Heure Température Précipitation Vent Pression Humidité
    00:00 0°C° 0.1 mm 1 m/s 757 mmHg 96%
    01:00 0°C° 0.1 mm 1 m/s 757 mmHg 96%
    02:00 0°C° 0.1 mm 1 m/s 757 mmHg 96%
    03:00 0°C° 0.1 mm 1 m/s 757 mmHg 97%
    04:00 -1°C° 0 mm 1 m/s 757 mmHg 96%
    05:00 -1°C° 0.1 mm 1 m/s 757 mmHg 96%
    06:00 -1°C° 0.1 mm 1 m/s 757 mmHg 96%
    07:00 -1°C° 0.1 mm 1 m/s 757 mmHg 96%
    08:00 -1°C° 0 mm 1 m/s 756 mmHg 96%
    09:00 -1°C° 0 mm 1 m/s 756 mmHg 95%
    10:00 0°C° 0 mm 1 m/s 756 mmHg 95%
    11:00 0°C° 0 mm 1 m/s 756 mmHg 93%
    12:00 0°C° 0 mm 1 m/s 756 mmHg 92%
    13:00 +1°C° 0 mm 1 m/s 756 mmHg 91%
    14:00 0°C° 0 mm 1 m/s 755 mmHg 92%
    15:00 0°C° 0 mm 1 m/s 755 mmHg 93%
    16:00 0°C° 0 mm 1 m/s 755 mmHg 94%
    17:00 0°C° 0 mm 1 m/s 755 mmHg 94%
    18:00 -3°C° 0 mm 2 m/s 754 mmHg 95%
    19:00 -3°C° 0 mm 2 m/s 754 mmHg 95%
    20:00 -3°C° 0 mm 2 m/s 754 mmHg 94%
    21:00 -3°C° 0 mm 2 m/s 753 mmHg 93%
    22:00 -4°C° 0 mm 3 m/s 753 mmHg 92%
    23:00 -4°C° 0 mm 3 m/s 752 mmHg 91%

    Demain, 21 Novembre, Mercredi

    Heure Température Précipitation Vent Pression Humidité
    00:00 -4°C° 0 mm 3 m/s 752 mmHg 90%
    01:00 -5°C° 0 mm 3 m/s 751 mmHg 90%
    02:00 -5°C° 0 mm 4 m/s 751 mmHg 90%
    03:00 -5°C° 0 mm 4 m/s 750 mmHg 89%
    04:00 -5°C° 0 mm 4 m/s 750 mmHg 89%
    05:00 -6°C° 0.1 mm 5 m/s 749 mmHg 89%
    06:00 -6°C° 0.1 mm 5 m/s 748 mmHg 88%
    07:00 -6°C° 0.1 mm 6 m/s 748 mmHg 88%
    08:00 -6°C° 0.4 mm 6 m/s 747 mmHg 88%
    09:00 -6°C° 0.4 mm 6 m/s 746 mmHg 89%
    10:00 -6°C° 0.4 mm 6 m/s 746 mmHg 89%
    11:00 -6°C° 0.3 mm 6 m/s 745 mmHg 89%
    12:00 -6°C° 0.3 mm 7 m/s 744 mmHg 88%
    13:00 -6°C° 0.3 mm 7 m/s 743 mmHg 87%
    14:00 -5°C° 0.1 mm 6 m/s 743 mmHg 87%
    15:00 -5°C° 0.1 mm 6 m/s 743 mmHg 87%
    16:00 -5°C° 0.1 mm 6 m/s 742 mmHg 87%
    17:00 -5°C° 0.2 mm 6 m/s 742 mmHg 86%
    18:00 -5°C° 0.2 mm 6 m/s 742 mmHg 86%
    19:00 -6°C° 0.2 mm 7 m/s 742 mmHg 85%
    20:00 -6°C° 0.1 mm 6 m/s 742 mmHg 85%
    21:00 -8°C° 0.1 mm 6 m/s 742 mmHg 84%
    22:00 -9°C° 0.1 mm 6 m/s 742 mmHg 83%
    23:00 -9°C° 0 mm 6 m/s 743 mmHg 84%

    Après-demain, 22 Novembre, Jeudi

    Heure Température Précipitation Vent Pression Humidité
    00:00 -9°C° 0 mm 6 m/s 743 mmHg 84%
    01:00 -9°C° 0 mm 7 m/s 743 mmHg 85%
    02:00 -11°C° 0.1 mm 7 m/s 743 mmHg 85%
    03:00 -10°C° 0.1 mm 6 m/s 743 mmHg 85%
    04:00 -11°C° 0.1 mm 6 m/s 743 mmHg 85%
    05:00 -11°C° 0 mm 6 m/s 743 mmHg 87%
    06:00 -11°C° 0 mm 6 m/s 743 mmHg 88%
    07:00 -12°C° 0 mm 5 m/s 743 mmHg 90%
    08:00 -11°C° 0.1 mm 5 m/s 743 mmHg 88%
    09:00 -11°C° 0.1 mm 5 m/s 744 mmHg 87%
    10:00 -11°C° 0.1 mm 5 m/s 744 mmHg 85%
    11:00 -11°C° 0 mm 5 m/s 744 mmHg 84%
    12:00 -10°C° 0 mm 4 m/s 744 mmHg 83%
    13:00 -10°C° 0 mm 4 m/s 744 mmHg 82%
    14:00 -10°C° 0 mm 4 m/s 744 mmHg 84%
    15:00 -11°C° 0 mm 4 m/s 743 mmHg 86%
    16:00 -10°C° 0 mm 3 m/s 743 mmHg 89%
    17:00 -10°C° 0.2 mm 4 m/s 742 mmHg 89%
    18:00 -11°C° 0.2 mm 5 m/s 741 mmHg 90%
    19:00 -11°C° 0.2 mm 7 m/s 741 mmHg 90%
    20:00 -9°C° 0.5 mm 7 m/s 740 mmHg 90%
    21:00 -9°C° 0.5 mm 7 m/s 739 mmHg 90%
    22:00 -8°C° 0.5 mm 8 m/s 738 mmHg 90%
    23:00 -8°C° 0.3 mm 7 m/s 737 mmHg 90%

    23 Novembre, Vendredi

    Heure Température Précipitation Vent Pression Humidité
    00:00 -8°C° 0.3 mm 7 m/s 736 mmHg 90%
    01:00 -8°C° 0.3 mm 7 m/s 736 mmHg 90%
    02:00 -8°C° 0.4 mm 6 m/s 735 mmHg 91%
    03:00 -7°C° 0.4 mm 5 m/s 735 mmHg 91%
    04:00 -8°C° 0.4 mm 5 m/s 734 mmHg 92%
    05:00 -8°C° 0.5 mm 4 m/s 734 mmHg 93%
    06:00 -7°C° 0.5 mm 3 m/s 734 mmHg 94%
    07:00 -6°C° 0.5 mm 2 m/s 734 mmHg 96%
    08:00 -7°C° 0.5 mm 3 m/s 734 mmHg 96%
    09:00 -7°C° 0.5 mm 3 m/s 735 mmHg 95%
    10:00 -7°C° 0.5 mm 3 m/s 735 mmHg 95%
    11:00 -10°C° 0.3 mm 5 m/s 736 mmHg 94%
    12:00 -10°C° 0.3 mm 6 m/s 737 mmHg 93%
    13:00 -12°C° 0.3 mm 8 m/s 738 mmHg 91%
    14:00 -12°C° 0.2 mm 8 m/s 739 mmHg 90%
    15:00 -14°C° 0.2 mm 9 m/s 740 mmHg 88%
    16:00 -15°C° 0.2 mm 9 m/s 741 mmHg 86%
    17:00 -15°C° 0 mm 9 m/s 742 mmHg 85%
    18:00 -15°C° 0 mm 8 m/s 743 mmHg 83%
    19:00 -16°C° 0 mm 8 m/s 744 mmHg 82%
    20:00 -15°C° 0 mm 7 m/s 745 mmHg 84%
    21:00 -17°C° 0 mm 7 m/s 746 mmHg 86%
    22:00 -17°C° 0 mm 6 m/s 747 mmHg 88%
    23:00 -17°C° 0 mm 5 m/s 748 mmHg 90%

    24 Novembre, Samedi

    Heure Température Précipitation Vent Pression Humidité
    00:00 -17°C° 0 mm 5 m/s 749 mmHg 91%
    01:00 -17°C° 0 mm 4 m/s 749 mmHg 93%
    02:00 -17°C° 0 mm 4 m/s 750 mmHg 94%
    03:00 -17°C° 0 mm 4 m/s 750 mmHg 95%
    04:00 -18°C° 0 mm 4 m/s 751 mmHg 95%
    05:00 -17°C° 0 mm 4 m/s 751 mmHg 96%
    06:00 -17°C° 0 mm 4 m/s 751 mmHg 96%
    07:00 -16°C° 0 mm 4 m/s 751 mmHg 96%
    08:00 -15°C° 0.1 mm 5 m/s 751 mmHg 94%
    09:00 -14°C° 0.1 mm 6 m/s 750 mmHg 92%
    10:00 -11°C° 0.1 mm 6 m/s 750 mmHg 91%
    11:00 -11°C° 0.1 mm 7 m/s 750 mmHg 90%
    12:00 -11°C° 0.1 mm 8 m/s 749 mmHg 89%
    13:00 -10°C° 0.1 mm 9 m/s 749 mmHg 87%
    14:00 -10°C° 0.1 mm 9 m/s 749 mmHg 87%
    15:00 -10°C° 0.1 mm 9 m/s 748 mmHg 87%
    16:00 -10°C° 0.1 mm 9 m/s 748 mmHg 87%
    17:00 -10°C° 0.1 mm 8 m/s 748 mmHg 86%
    18:00 -10°C° 0.1 mm 8 m/s 748 mmHg 86%
    19:00 -8°C° 0.1 mm 8 m/s 747 mmHg 86%
    20:00 -8°C° 0.1 mm 8 m/s 747 mmHg 86%
    21:00 -8°C° 0.1 mm 8 m/s 747 mmHg 86%
    22:00 -8°C° 0.1 mm 8 m/s 746 mmHg 86%
    23:00 -8°C° 0.1 mm 8 m/s 746 mmHg 86%

    25 Novembre, Dimanche

    Heure Température Précipitation Vent Pression Humidité
    00:00 -8°C° 0.1 mm 9 m/s 746 mmHg 85%
    01:00 -8°C° 0.1 mm 9 m/s 746 mmHg 85%
    02:00 -8°C° 0.1 mm 9 m/s 746 mmHg 86%
    03:00 -8°C° 0.1 mm 9 m/s 747 mmHg 86%
    04:00 -7°C° 0.1 mm 8 m/s 747 mmHg 87%
    05:00 -7°C° 0 mm 8 m/s 747 mmHg 87%
    06:00 -7°C° 0 mm 7 m/s 748 mmHg 87%
    07:00 -7°C° 0 mm 7 m/s 748 mmHg 88%
    08:00 -7°C° 0 mm 7 m/s 749 mmHg 88%
    09:00 -6°C° 0 mm 6 m/s 749 mmHg 88%
    10:00 -6°C° 0 mm 6 m/s 750 mmHg 88%
    11:00 -6°C° 0 mm 6 m/s 750 mmHg 88%
    12:00 -6°C° 0 mm 6 m/s 751 mmHg 87%
    13:00 -6°C° 0 mm 5 m/s 751 mmHg 87%
    14:00 -6°C° 0 mm 5 m/s 751 mmHg 88%
    15:00 -6°C° 0 mm 5 m/s 751 mmHg 88%
    16:00 -7°C° 0 mm 4 m/s 751 mmHg 89%
    17:00 -7°C° 0 mm 4 m/s 751 mmHg 89%
    18:00 -7°C° 0 mm 4 m/s 751 mmHg 90%
    19:00 -7°C° 0 mm 4 m/s 751 mmHg 90%
    20:00 -7°C° 0 mm 4 m/s 751 mmHg 90%
    21:00 -7°C° 0 mm 4 m/s 751 mmHg 90%
    22:00 -7°C° 0 mm 4 m/s 751 mmHg 89%
    23:00 -8°C° 0 mm 4 m/s 751 mmHg 90%
    Voir plus